safelinkconverter.com alexa rank chart, safelinkconverter.com alexa rank daily changes

safelinkconverter.com alexa rank chart, safelinkconverter.com alexa rank daily changes

safelinkconverter.com
Actual rank:
14 135

RANK HISTORY

Date Rank Diff
2018/01/24 14 135 +113
2018/01/23 14 022 -74
2018/01/22 14 096 -89
2018/01/21 14 185 -15
2018/01/20 14 200 +10
2018/01/19 14 190 +132
2018/01/18 14 058 +136
2018/01/17 13 922 +112
2018/01/16 13 810 -92
2018/01/15 13 902 -6
2018/01/14 13 908 -94
2018/01/13 14 002 +5
2018/01/12 13 997 -32
2018/01/11 14 029 +89
2018/01/10 13 940 -35
2018/01/09 13 975 -216
2018/01/08 14 191 -152
2018/01/07 14 343 +22
2018/01/06 14 321 -108
2018/01/05 14 429 +6
2018/01/04 14 423 -18
2018/01/03 14 441 -76
2018/01/02 14 517 -237
2018/01/01 14 754 -188
2017/12/31 14 942 -112
2017/12/30 15 054 +45
2017/12/29 15 009 -92
2017/12/28 15 101 -157
2017/12/27 15 258 -225
2017/12/26 15 483 -554
2017/12/25 16 037 -495
2017/12/24 16 532 +84
2017/12/23 16 448 +63
2017/12/22 16 385 -64
2017/12/21 16 449 +216
2017/12/20 16 233 +235
2017/12/19 15 998 -80
2017/12/18 16 078 -170
2017/12/17 16 248 -30
2017/12/16 16 278 +80
2017/12/15 16 198 +5
2017/12/14 16 193 +334
2017/12/13 15 859 -7
2017/12/12 15 866 -218
2017/12/11 16 084 -262
2017/12/10 16 346 +113
2017/12/09 16 233 +131
2017/12/08 16 102 +95
2017/12/07 16 007 +174
2017/12/06 15 833 +307
2017/12/05 15 526 +50
2017/12/04 15 476 -42
2017/12/03 15 518 -44
2017/12/02 15 562 +106
2017/12/01 15 456 +246
2017/11/30 15 210 +264
2017/11/29 14 946 +227
2017/11/28 14 719 -109
2017/11/27 14 828 -108
2017/11/26 14 936 -11
2017/11/25 14 947 +263
2017/11/24 14 684

WIDGET FOR YOUR SITE

DOMAINS WITH THE NEAREST RANK

Domain Rank
scholars4dev.com 14 130
eska.pl 14 131
tra.gov.tw 14 132
whattoexpect.com 14 133
straightdope.com 14 134
safelinkconverter.com 14 135
kerbalspaceprogram.com 14 136
pyszne.pl 14 137
torrentik.co 14 138
gubdaily.ru 14 139
forum.hr 14 140

DOMAINS WITH THE NEAREST RANK BY TLD .com

Domain Rank
artnet.com 14 128
epidemicsound.com 14 129
scholars4dev.com 14 130
whattoexpect.com 14 133
straightdope.com 14 134
safelinkconverter.com 14 135
kerbalspaceprogram.com 14 136
belk.com 14 147
searchenginejournal.com 14 149
ass4all.com 14 151
leguide.com 14 152